"read_dt","SO2 (ppb)","flags","PMT voltage (V)","lamp voltage (V)","lamp intensity (Hz)","internal temp (C)","react chamber temp (C)","sample flow (l/min)","pres (mmHg)","SO2 bkg (ppb)","SO2 coefficient"
2014-03-06 00:00:00,6392E-2,5C000490,-0724,1375,4634,022.9,045.2,0.134,768.0,01.15,0.508
2014-03-06 00:01:00,6402E-2,5C000490,-0724,1375,4686,022.9,045.2,0.134,768.0,01.15,0.508
2014-03-06 00:02:00,6377E-2,5C000490,-0724,1375,4709,022.9,045.2,0.134,768.0,01.15,0.508
2014-03-06 00:03:00,6470E-2,5C000490,-0724,1375,4682,022.9,045.1,0.134,768.0,01.15,0.508
2014-03-06 00:04:00,6418E-2,5C000490,-0724,1375,4623,022.9,045.2,0.134,768.1,01.15,0.508
2014-03-06 00:05:00,6377E-2,5C000490,-0724,1375,4685,022.9,045.2,0.134,768.0,01.15,0.508
2014-03-06 00:06:00,6447E-2,5C000490,-0724,1375,4617,023.0,045.1,0.134,768.0,01.15,0.508
2014-03-06 00:07:00,6442E-2,5C000490,-0724,1375,4598,023.0,045.1,0.133,768.0,01.15,0.508
2014-03-06 00:08:00,6406E-2,5C000490,-0724,1375,4662,023.0,045.1,0.133,768.0,01.15,0.508
2014-03-06 00:09:00,6445E-2,5C000490,-0724,1375,4601,023.0,045.2,0.133,768.1,01.15,0.508
2014-03-06 00:10:00,6453E-2,5C000490,-0724,1375,4618,023.0,045.1,0.133,768.0,01.15,0.508
2014-03-06 00:11:00,6460E-2,5C000490,-0724,1375,4620,022.9,045.1,0.133,768.0,01.15,0.508
2014-03-06 00:12:00,6380E-2,5C000490,-0724,1375,4636,022.9,045.1,0.133,768.1,01.15,0.508
2014-03-06 00:13:00,6414E-2,5C000490,-0724,1375,4600,022.8,045.2,0.133,768.1,01.15,0.508
2014-03-06 00:14:00,6428E-2,5C000490,-0724,1375,4618,022.8,045.1,0.133,768.1,01.15,0.508
2014-03-06 00:15:00,6399E-2,5C000490,-0724,1375,4601,022.7,045.1,0.134,768.0,01.15,0.508
2014-03-06 00:16:00,6500E-2,5C000490,-0724,1375,4590,022.7,045.2,0.134,768.1,01.15,0.508
2014-03-06 00:17:00,6478E-2,5C000490,-0724,1375,4582,022.6,045.1,0.134,768.1,01.15,0.508
2014-03-06 00:18:00,6477E-2,5C000490,-0724,1375,4487,022.6,045.1,0.134,768.1,01.15,0.508
2014-03-06 00:19:00,6459E-2,5C000490,-0724,1375,4560,022.5,045.1,0.134,768.1,01.15,0.508
2014-03-06 00:20:00,6430E-2,5C000490,-0724,1375,4551,022.3,045.1,0.134,768.2,01.15,0.508
2014-03-06 00:21:00,6431E-2,5C000490,-0724,1375,4565,022.3,045.1,0.134,768.2,01.15,0.508
2014-03-06 00:22:00,6490E-2,5C000490,-0724,1375,4544,022.2,045.1,0.134,768.1,01.15,0.508
2014-03-06 00:23:00,6478E-2,5C000490,-0724,1375,4532,022.2,045.1,0.135,768.2,01.15,0.508
2014-03-06 00:24:00,6451E-2,5C000490,-0724,1375,4551,022.1,045.1,0.135,768.2,01.15,0.508
2014-03-06 00:25:00,6484E-2,5C000490,-0724,1375,4545,022.0,045.1,0.135,768.2,01.15,0.508
2014-03-06 00:26:00,6516E-2,5C000490,-0724,1375,4588,022.0,045.1,0.136,768.2,01.15,0.508
2014-03-06 00:27:00,6522E-2,5C000490,-0724,1375,4639,021.9,045.1,0.136,768.2,01.15,0.508
2014-03-06 00:28:00,6465E-2,5C000490,-0724,1375,4515,021.8,045.1,0.136,768.2,01.15,0.508
2014-03-06 00:29:00,6450E-2,5C000490,-0724,1375,4559,021.8,045.1,0.136,768.2,01.15,0.508
2014-03-06 00:30:00,6521E-2,5C000490,-0724,1375,4550,021.8,045.1,0.137,768.2,01.15,0.508
2014-03-06 00:31:00,6510E-2,5C000490,-0724,1375,4596,021.7,045.1,0.137,768.2,01.15,0.508
2014-03-06 00:32:00,6546E-2,5C000490,-0724,1375,4614,021.6,045.1,0.137,768.2,01.15,0.508
2014-03-06 00:33:00,6516E-2,5C000490,-0724,1375,4536,021.6,045.1,0.137,768.2,01.15,0.508
2014-03-06 00:34:00,6543E-2,5C000490,-0724,1375,4542,021.5,045.1,0.138,768.2,01.15,0.508
2014-03-06 00:35:00,6514E-2,5C000490,-0724,1375,4590,021.4,045.1,0.138,768.2,01.15,0.508
2014-03-06 00:36:00,6507E-2,5C000490,-0724,1375,4585,021.3,045.1,0.138,768.2,01.15,0.508
2014-03-06 00:37:00,6523E-2,5C000490,-0724,1375,4488,021.3,045.1,0.138,768.3,01.15,0.508
2014-03-06 00:38:00,6740E-2,5C000490,-0724,1375,4865,021.2,045.1,0.138,768.3,01.15,0.508
2014-03-06 00:39:00,6800E-2,5C000490,-0724,1375,4872,021.2,045.1,0.138,768.2,01.15,0.508
2014-03-06 00:40:00,6347E-2,5C000490,-0724,1375,5642,021.1,045.1,0.139,768.2,01.15,0.508
2014-03-06 00:41:00,6314E-2,5C000490,-0724,1375,5639,021.1,045.1,0.139,768.3,01.15,0.508
2014-03-06 00:42:00,6243E-2,5C000490,-0724,1375,5611,021.0,045.1,0.139,768.3,01.15,0.508
2014-03-06 00:43:00,6277E-2,5C000490,-0724,1375,5568,020.9,045.1,0.140,768.2,01.15,0.508
2014-03-06 00:44:00,6229E-2,5C000490,-0724,1375,5533,020.9,045.1,0.140,768.3,01.15,0.508
2014-03-06 00:45:00,6261E-2,5C000490,-0724,1375,5540,020.8,045.1,0.140,768.2,01.15,0.508
2014-03-06 00:46:00,6209E-2,5C000490,-0724,1375,5551,020.8,045.1,0.140,768.2,01.15,0.508
2014-03-06 00:47:00,6292E-2,5C000490,-0724,1375,5441,020.7,045.1,0.141,768.2,01.15,0.508
2014-03-06 00:48:00,6243E-2,5C000490,-0724,1375,5479,020.7,045.1,0.141,768.2,01.15,0.508
2014-03-06 00:49:00,6227E-2,5C000490,-0724,1374,5447,020.6,045.1,0.141,768.2,01.15,0.508
2014-03-06 00:50:00,6233E-2,5C000490,-0724,1374,5475,020.6,045.1,0.141,768.2,01.15,0.508
2014-03-06 00:51:00,6259E-2,5C000490,-0724,1375,5489,020.5,045.1,0.141,768.2,01.15,0.508
2014-03-06 00:52:00,6260E-2,5C000490,-0724,1374,5382,020.5,045.1,0.141,768.1,01.15,0.508
2014-03-06 00:53:00,6277E-2,5C000490,-0724,1374,5451,020.4,045.1,0.142,768.2,01.15,0.508
2014-03-06 00:54:00,6271E-2,5C000490,-0724,1374,5411,020.4,045.1,0.142,768.2,01.15,0.508
2014-03-06 00:55:00,6260E-2,5C000490,-0724,1374,5365,020.4,045.1,0.142,768.2,01.15,0.508
2014-03-06 00:56:00,6237E-2,5C000490,-0724,1374,5357,020.3,045.1,0.142,768.2,01.15,0.508
2014-03-06 00:57:00,6230E-2,5C000490,-0724,1374,5340,020.3,045.1,0.142,768.2,01.15,0.508
2014-03-06 00:58:00,6261E-2,5C000490,-0724,1374,5380,020.2,045.1,0.142,768.3,01.15,0.508
2014-03-06 00:59:00,6240E-2,5C000490,-0724,1374,5348,020.2,045.1,0.143,768.2,01.15,0.508
2014-03-06 01:00:00,6273E-2,5C000490,-0724,1374,5358,020.1,045.1,0.143,768.3,01.15,0.508
2014-03-06 01:01:00,6223E-2,5C000490,-0724,1374,5321,020.1,045.1,0.143,768.3,01.15,0.508
2014-03-06 01:02:00,6316E-2,5C000490,-0724,1374,5311,020.1,045.1,0.143,768.2,01.15,0.508
2014-03-06 01:03:00,6276E-2,5C000490,-0724,1374,5298,020.0,045.1,0.143,768.2,01.15,0.508
2014-03-06 01:04:00,6284E-2,5C000490,-0724,1374,5240,019.9,045.1,0.144,768.2,01.15,0.508
2014-03-06 01:05:00,6153E-2,5C000490,-0724,1374,5233,019.9,045.1,0.144,768.3,01.15,0.508
2014-03-06 01:06:00,6248E-2,5C000490,-0724,1374,5179,019.9,045.1,0.144,768.3,01.15,0.508
2014-03-06 01:07:00,6275E-2,5C000490,-0724,1374,5200,019.8,045.1,0.144,768.3,01.15,0.508
2014-03-06 01:08:00,6270E-2,5C000490,-0724,1374,5170,019.8,045.1,0.144,768.3,01.15,0.508
2014-03-06 01:09:00,6247E-2,5C000490,-0724,1374,5230,019.7,045.0,0.144,768.2,01.15,0.508
2014-03-06 01:10:00,6315E-2,5C000490,-0724,1374,5236,019.7,045.1,0.145,768.3,01.15,0.508
2014-03-06 01:11:00,6213E-2,5C000490,-0724,1374,5149,019.7,045.1,0.145,768.4,01.15,0.508
2014-03-06 01:12:00,6190E-2,5C000490,-0724,1374,5128,019.6,045.1,0.145,768.4,01.15,0.508
2014-03-06 01:13:00,6222E-2,5C000490,-0724,1374,5149,019.6,045.0,0.145,768.3,01.15,0.508
2014-03-06 01:14:00,6272E-2,5C000490,-0724,1374,5252,019.7,045.1,0.145,768.3,01.15,0.508
2014-03-06 01:15:00,6231E-2,5C000490,-0724,1374,5177,019.7,045.1,0.145,768.2,01.15,0.508
2014-03-06 01:16:00,6219E-2,5C000490,-0724,1374,5165,019.7,045.1,0.145,768.4,01.15,0.508
2014-03-06 01:17:00,6300E-2,5C000490,-0724,1374,5175,019.7,045.1,0.145,768.4,01.15,0.508
2014-03-06 01:18:00,6336E-2,5C000490,-0724,1374,5158,019.7,045.1,0.146,768.3,01.15,0.508
2014-03-06 01:19:00,6277E-2,5C000490,-0724,1374,5172,019.8,045.1,0.146,768.2,01.15,0.508
2014-03-06 01:20:00,6273E-2,5C000490,-0724,1374,5145,019.8,045.1,0.146,768.2,01.15,0.508
2014-03-06 01:21:00,6335E-2,5C000490,-0724,1374,5154,019.8,045.1,0.145,768.2,01.15,0.508
2014-03-06 01:22:00,6239E-2,5C000490,-0724,1374,5096,019.8,045.1,0.145,768.2,01.15,0.508
2014-03-06 01:23:00,6204E-2,5C000490,-0724,1374,5076,019.9,045.1,0.145,768.3,01.15,0.508
2014-03-06 01:24:00,6271E-2,5C000490,-0724,1374,5109,019.9,045.0,0.145,768.2,01.15,0.508
2014-03-06 01:25:00,6373E-2,5C000490,-0724,1374,5064,019.9,045.1,0.145,768.2,01.15,0.508
2014-03-06 01:26:00,6287E-2,5C000490,-0724,1374,5079,020.0,045.1,0.145,768.2,01.15,0.508
2014-03-06 01:27:00,6295E-2,5C000490,-0724,1374,5028,020.0,045.1,0.145,768.2,01.15,0.508
2014-03-06 01:28:00,6270E-2,5C000490,-0724,1374,5032,020.0,045.0,0.145,768.1,01.15,0.508
2014-03-06 01:29:00,6218E-2,5C000490,-0724,1374,5056,020.1,045.1,0.145,768.2,01.15,0.508
2014-03-06 01:30:00,6228E-2,5C000490,-0724,1374,5009,020.1,045.1,0.145,768.3,01.15,0.508
2014-03-06 01:31:00,6365E-2,5C000490,-0724,1374,5003,020.1,045.1,0.145,768.2,01.15,0.508
2014-03-06 01:32:00,6268E-2,5C000490,-0724,1374,4947,020.2,045.0,0.145,768.2,01.15,0.508
2014-03-06 01:33:00,6301E-2,5C000490,-0724,1374,4956,020.2,045.1,0.144,768.3,01.15,0.508
2014-03-06 01:34:00,6291E-2,5C000490,-0724,1375,5050,020.3,045.1,0.144,768.2,01.15,0.508
2014-03-06 01:35:00,6224E-2,5C000490,-0724,1375,5070,020.3,045.1,0.144,768.2,01.15,0.508
2014-03-06 01:36:00,6233E-2,5C000490,-0724,1375,5044,020.4,045.1,0.144,768.2,01.15,0.508
2014-03-06 01:37:00,6233E-2,5C000490,-0724,1375,5023,020.4,045.1,0.144,768.2,01.15,0.508
2014-03-06 01:38:00,6266E-2,5C000490,-0724,1375,5013,020.5,045.1,0.144,768.2,01.15,0.508
2014-03-06 01:39:00,6229E-2,5C000490,-0724,1375,5070,020.5,045.1,0.144,768.2,01.15,0.508
2014-03-06 01:40:00,6265E-2,5C000490,-0724,1375,5082,020.6,045.1,0.143,768.3,01.15,0.508
2014-03-06 01:41:00,6224E-2,5C000490,-0724,1375,5057,020.6,045.1,0.143,768.3,01.15,0.508
2014-03-06 01:42:00,6203E-2,5C000490,-0724,1375,5036,020.6,045.1,0.143,768.1,01.15,0.508
2014-03-06 01:43:00,6245E-2,5C000490,-0724,1375,5007,020.7,045.1,0.143,768.1,01.15,0.508
2014-03-06 01:44:00,6278E-2,5C000490,-0724,1375,4997,020.7,045.1,0.143,768.2,01.15,0.508
2014-03-06 01:45:00,6196E-2,5C000490,-0724,1375,5049,020.8,045.1,0.143,768.2,01.15,0.508
2014-03-06 01:46:00,6212E-2,5C000490,-0724,1375,5032,020.8,045.1,0.142,768.1,01.15,0.508
2014-03-06 01:47:00,6167E-2,5C000490,-0724,1375,5019,020.9,045.1,0.142,768.1,01.15,0.508
2014-03-06 01:48:00,6253E-2,5C000490,-0724,1375,4960,020.9,045.1,0.142,768.1,01.15,0.508
2014-03-06 01:49:00,6211E-2,5C000490,-0724,1375,4917,020.9,045.1,0.142,768.0,01.15,0.508
2014-03-06 01:50:00,6295E-2,5C000490,-0724,1375,4909,021.0,045.1,0.142,768.0,01.15,0.508
2014-03-06 01:51:00,6348E-2,5C000490,-0724,1375,4813,021.0,045.1,0.142,768.0,01.15,0.508
2014-03-06 01:52:00,6359E-2,5C000490,-0724,1375,4824,021.0,045.1,0.142,768.1,01.15,0.508
2014-03-06 01:53:00,6403E-2,5C000490,-0724,1375,4762,021.1,045.1,0.141,768.1,01.15,0.508
2014-03-06 01:54:00,6387E-2,5C000490,-0724,1375,4723,021.1,045.1,0.141,768.0,01.15,0.508
2014-03-06 01:55:00,6393E-2,5C000490,-0724,1375,4719,021.2,045.1,0.141,768.0,01.15,0.508
2014-03-06 01:56:00,6394E-2,5C000490,-0724,1375,4776,021.2,045.1,0.141,768.0,01.15,0.508
2014-03-06 01:57:00,6425E-2,5C000490,-0724,1375,4728,021.2,045.1,0.141,768.0,01.15,0.508
2014-03-06 01:58:00,6354E-2,5C000490,-0724,1375,4769,021.2,045.1,0.140,768.0,01.15,0.508
2014-03-06 01:59:00,6335E-2,5C000490,-0724,1375,4729,021.3,045.1,0.140,768.0,01.15,0.508
2014-03-06 02:00:00,6361E-2,5C000490,-0724,1375,4718,021.3,045.1,0.140,768.0,01.15,0.508
2014-03-06 02:01:00,6350E-2,5C000490,-0724,1375,4642,021.4,045.1,0.140,768.1,01.15,0.508
2014-03-06 02:02:00,6422E-2,5C000490,-0724,1375,4678,021.4,045.1,0.140,768.0,01.15,0.508
2014-03-06 02:03:00,6325E-2,5C000490,-0724,1375,4729,021.4,045.1,0.140,768.0,01.15,0.508
2014-03-06 02:04:00,6381E-2,5C000490,-0724,1375,4674,021.4,045.1,0.140,768.1,01.15,0.508
2014-03-06 02:05:00,6317E-2,5C000490,-0724,1375,4741,021.5,045.1,0.140,768.1,01.15,0.508
2014-03-06 02:06:00,5549E-2,5C000490,-0724,1195,9256,021.5,045.1,0.140,768.1,01.15,0.508
2014-03-06 02:07:00,4905E-2,5C000410,-0724,1165,8917,021.5,045.1,0.139,768.0,01.15,0.508
2014-03-06 02:08:00,4881E-2,5C000410,-0724,1168,8837,021.6,045.1,0.139,768.0,01.15,0.508
2014-03-06 02:09:00,4796E-2,5C000410,-0724,1172,8730,021.6,045.1,0.139,768.1,01.15,0.508
2014-03-06 02:10:00,4837E-2,5C000410,-0724,1179,8647,021.6,045.1,0.139,768.1,01.15,0.508
2014-03-06 02:11:00,4821E-2,5C000410,-0724,1183,8620,021.6,045.1,0.139,768.1,01.15,0.508
2014-03-06 02:12:00,4890E-2,5C000410,-0724,1186,8746,021.7,045.1,0.139,768.1,01.15,0.508
2014-03-06 02:13:00,4950E-2,5C000410,-0724,1189,8591,021.7,045.1,0.139,768.2,01.15,0.508
2014-03-06 02:14:00,4936E-2,5C000410,-0724,1193,8634,021.7,045.1,0.139,768.3,01.15,0.508
2014-03-06 02:15:00,4933E-2,5C000410,-0724,1197,8576,021.7,045.1,0.138,768.2,01.15,0.508
2014-03-06 02:16:00,4913E-2,5C000410,-0724,1200,8479,021.8,045.1,0.138,768.2,01.15,0.508
2014-03-06 02:17:00,4993E-2,5C000490,-0724,1204,8497,021.8,045.1,0.138,768.2,01.15,0.508
2014-03-06 02:18:00,4891E-2,5C000490,-0724,1206,8370,021.8,045.1,0.138,768.1,01.15,0.508
2014-03-06 02:19:00,5012E-2,5C000490,-0724,1209,8450,021.8,045.1,0.138,768.1,01.15,0.508
2014-03-06 02:20:00,5018E-2,5C000490,-0724,1211,8475,021.8,045.1,0.138,768.2,01.15,0.508
2014-03-06 02:21:00,4968E-2,5C000490,-0724,1213,8298,021.9,045.1,0.138,768.2,01.15,0.508
2014-03-06 02:22:00,4943E-2,5C000490,-0724,1215,8349,021.9,045.1,0.138,768.1,01.15,0.508
2014-03-06 02:23:00,4980E-2,5C000490,-0724,1217,8365,021.9,045.1,0.138,768.2,01.15,0.508
2014-03-06 02:24:00,4906E-2,5C000490,-0724,1219,8369,022.0,045.1,0.138,768.2,01.15,0.508
2014-03-06 02:25:00,4984E-2,5C000490,-0724,1221,8403,022.0,045.1,0.138,768.1,01.15,0.508
2014-03-06 02:26:00,4964E-2,5C000490,-0724,1224,8365,022.0,045.1,0.138,768.2,01.15,0.508
2014-03-06 02:27:00,4918E-2,5C000490,-0724,1226,8296,022.0,045.1,0.137,768.3,01.15,0.508
2014-03-06 02:28:00,4958E-2,5C000490,-0724,1232,8211,022.0,045.1,0.137,768.3,01.15,0.508
2014-03-06 02:29:00,4950E-2,5C000490,-0724,1236,8251,022.0,045.1,0.137,768.2,01.15,0.508
2014-03-06 02:30:00,5008E-2,5C000490,-0724,1241,8089,022.0,045.1,0.137,768.3,01.15,0.508
2014-03-06 02:31:00,5022E-2,5C000490,-0724,1244,8197,022.1,045.1,0.137,768.3,01.15,0.508
2014-03-06 02:32:00,5010E-2,5C000490,-0724,1245,8086,022.1,045.1,0.137,768.2,01.15,0.508
2014-03-06 02:33:00,5012E-2,5C000490,-0724,1245,8091,022.2,045.1,0.137,768.3,01.15,0.508
2014-03-06 02:34:00,4971E-2,5C000490,-0724,1246,8075,022.2,045.1,0.137,768.3,01.15,0.508
2014-03-06 02:35:00,4980E-2,5C000490,-0724,1247,8161,022.2,045.1,0.137,768.3,01.15,0.508
2014-03-06 02:36:00,5000E-2,5C000490,-0724,1245,8143,022.2,045.1,0.137,768.3,01.15,0.508
2014-03-06 02:37:00,5005E-2,5C000490,-0724,1246,8101,022.2,045.1,0.136,768.3,01.15,0.508
2014-03-06 02:38:00,5041E-2,5C000490,-0724,1248,7940,022.3,045.1,0.136,768.3,01.15,0.508
2014-03-06 02:39:00,5006E-2,5C000490,-0724,1249,7970,022.3,045.1,0.136,768.3,01.15,0.508
2014-03-06 02:40:00,4973E-2,5C000490,-0724,1250,8025,022.3,045.1,0.136,768.2,01.15,0.508
2014-03-06 02:41:00,4992E-2,5C000490,-0724,1255,8016,022.3,045.1,0.136,768.2,01.15,0.508
2014-03-06 02:42:00,4968E-2,5C000490,-0724,1255,8004,022.3,045.1,0.136,768.3,01.15,0.508
2014-03-06 02:43:00,4982E-2,5C000490,-0724,1257,8025,022.4,045.1,0.136,768.4,01.15,0.508
2014-03-06 02:44:00,5044E-2,5C000490,-0724,1259,8023,022.4,045.1,0.136,768.3,01.15,0.508
2014-03-06 02:45:00,5041E-2,5C000490,-0724,1259,7981,022.4,045.1,0.136,768.3,01.15,0.508
2014-03-06 02:46:00,4991E-2,5C000490,-0724,1262,7937,022.4,045.1,0.136,768.3,01.15,0.508
2014-03-06 02:47:00,5063E-2,5C000490,-0724,1263,7899,022.4,045.1,0.136,768.4,01.15,0.508
2014-03-06 02:48:00,5036E-2,5C000490,-0724,1262,7952,022.4,045.1,0.136,768.4,01.15,0.508
2014-03-06 02:49:00,5021E-2,5C000490,-0724,1262,8016,022.5,045.1,0.135,768.3,01.15,0.508
2014-03-06 02:50:00,4944E-2,5C000490,-0724,1262,7962,022.5,045.1,0.135,768.4,01.15,0.508
2014-03-06 02:51:00,5075E-2,5C000490,-0724,1268,7864,022.5,045.2,0.135,768.4,01.15,0.508
2014-03-06 02:52:00,5421E-2,5C000490,-0724,1275,7847,022.5,045.1,0.135,768.4,01.15,0.508
2014-03-06 02:53:00,5472E-2,5C000490,-0724,1276,7836,022.5,045.1,0.135,768.4,01.15,0.508
2014-03-06 02:54:00,5461E-2,5C000490,-0724,1280,7729,022.5,045.1,0.135,768.3,01.15,0.508
2014-03-06 02:55:00,5456E-2,5C000490,-0724,1282,7782,022.5,045.1,0.135,768.4,01.15,0.508
2014-03-06 02:56:00,5505E-2,5C000490,-0724,1285,7730,022.6,045.1,0.135,768.4,01.15,0.508
2014-03-06 02:57:00,5759E-2,5C000490,-0724,1271,7938,022.6,045.1,0.135,768.4,01.15,0.508
2014-03-06 02:58:00,6024E-2,5C000490,-0724,1265,7868,022.6,045.1,0.135,768.3,01.15,0.508
2014-03-06 02:59:00,6047E-2,5C000490,-0724,1267,7959,022.6,045.1,0.135,768.4,01.15,0.508
2014-03-06 03:00:00,6045E-2,5C000490,-0724,1270,7857,022.6,045.2,0.135,768.4,01.15,0.508
2014-03-06 03:01:00,6077E-2,5C000490,-0724,1275,7732,022.7,045.2,0.135,768.3,01.15,0.508
2014-03-06 03:02:00,6054E-2,5C000490,-0724,1279,7710,022.7,045.1,0.135,768.3,01.15,0.508
2014-03-06 03:03:00,5958E-2,5C000490,-0724,1283,7769,022.7,045.1,0.134,768.3,01.15,0.508
2014-03-06 03:04:00,6040E-2,5C000490,-0724,1284,7802,022.7,045.1,0.134,768.4,01.15,0.508
2014-03-06 03:05:00,6001E-2,5C000490,-0724,1285,7721,022.7,045.1,0.134,768.3,01.15,0.508
2014-03-06 03:06:00,6051E-2,5C000490,-0724,1287,7654,022.8,045.1,0.134,768.4,01.15,0.508
2014-03-06 03:07:00,5991E-2,5C000490,-0724,1290,7673,022.8,045.1,0.134,768.4,01.15,0.508
2014-03-06 03:08:00,6006E-2,5C000490,-0724,1293,7560,022.8,045.1,0.134,768.3,01.15,0.508
2014-03-06 03:09:00,6027E-2,5C000490,-0724,1295,7652,022.8,045.1,0.134,768.4,01.15,0.508
2014-03-06 03:10:00,6048E-2,5C000490,-0724,1297,7625,022.8,045.1,0.134,768.4,01.15,0.508
2014-03-06 03:11:00,6046E-2,5C000490,-0724,1299,7647,022.8,045.1,0.134,768.4,01.15,0.508
2014-03-06 03:12:00,5963E-2,5C000490,-0724,1304,7587,022.8,045.1,0.134,768.4,01.15,0.508
2014-03-06 03:13:00,6061E-2,5C000490,-0724,1308,7572,022.9,045.1,0.134,768.4,01.15,0.508
2014-03-06 03:14:00,6033E-2,5C000490,-0724,1311,7455,022.9,045.1,0.134,768.4,01.15,0.508
2014-03-06 03:15:00,6029E-2,5C000490,-0724,1314,7405,022.9,045.1,0.134,768.5,01.15,0.508
2014-03-06 03:16:00,6045E-2,5C000490,-0724,1315,7391,022.9,045.2,0.134,768.5,01.15,0.508
2014-03-06 03:17:00,5997E-2,5C000490,-0724,1318,7413,022.9,045.1,0.134,768.4,01.15,0.508
2014-03-06 03:18:00,6040E-2,5C000490,-0724,1319,7363,022.9,045.1,0.134,768.3,01.15,0.508
2014-03-06 03:19:00,6046E-2,5C000490,-0724,1319,7268,022.9,045.2,0.134,768.5,01.15,0.508
2014-03-06 03:20:00,6064E-2,5C000490,-0724,1320,7327,023.0,045.2,0.133,768.5,01.15,0.508
2014-03-06 03:21:00,6050E-2,5C000490,-0724,1322,7337,023.0,045.2,0.133,768.4,01.15,0.508
2014-03-06 03:22:00,6061E-2,5C000490,-0724,1325,7228,023.0,045.1,0.133,768.4,01.15,0.508
2014-03-06 03:23:00,6127E-2,5C000490,-0724,1328,7280,023.0,045.1,0.133,768.5,01.15,0.508
2014-03-06 03:24:00,6174E-2,5C000490,-0724,1330,7254,023.0,045.2,0.133,768.5,01.15,0.508
2014-03-06 03:25:00,6182E-2,5C000490,-0724,1333,7289,023.0,045.1,0.133,768.4,01.15,0.508
2014-03-06 03:26:00,6142E-2,5C000490,-0724,1333,7152,023.0,045.2,0.133,768.4,01.15,0.508
2014-03-06 03:27:00,6090E-2,5C000490,-0724,1335,7209,023.0,045.2,0.133,768.4,01.15,0.508
2014-03-06 03:28:00,6107E-2,5C000490,-0724,1337,7214,023.1,045.1,0.133,768.4,01.15,0.508
2014-03-06 03:29:00,6188E-2,5C000490,-0724,1340,7176,023.1,045.1,0.133,768.4,01.15,0.508
2014-03-06 03:30:00,6147E-2,5C000490,-0724,1343,7119,023.1,045.1,0.133,768.4,01.15,0.508
2014-03-06 03:31:00,6192E-2,5C000490,-0724,1344,7090,023.1,045.2,0.133,768.4,01.15,0.508
2014-03-06 03:32:00,6133E-2,5C000490,-0724,1345,7097,023.1,045.1,0.133,768.4,01.15,0.508
2014-03-06 03:33:00,6176E-2,5C000490,-0724,1347,7152,023.1,045.2,0.133,768.3,01.15,0.508
2014-03-06 03:34:00,6133E-2,5C000490,-0724,1347,7030,023.1,045.1,0.133,768.4,01.15,0.508
2014-03-06 03:35:00,6142E-2,5C000490,-0724,1347,7096,023.1,045.1,0.133,768.4,01.15,0.508
2014-03-06 03:36:00,6105E-2,5C000490,-0724,1349,7129,023.2,045.2,0.133,768.4,01.15,0.508
2014-03-06 03:37:00,6188E-2,5C000490,-0724,1349,7013,023.2,045.2,0.133,768.4,01.15,0.508
2014-03-06 03:38:00,6193E-2,5C000490,-0724,1351,7075,023.2,045.1,0.133,768.4,01.15,0.508
2014-03-06 03:39:00,6130E-2,5C000490,-0724,1351,7081,023.2,045.1,0.133,768.3,01.15,0.508
2014-03-06 03:40:00,6214E-2,5C000490,-0724,1352,7027,023.2,045.1,0.132,768.4,01.15,0.508
2014-03-06 03:41:00,6147E-2,5C000490,-0724,1353,7061,023.2,045.1,0.133,768.4,01.15,0.508
2014-03-06 03:42:00,6134E-2,5C000490,-0724,1353,7006,023.3,045.2,0.132,768.4,01.15,0.508
2014-03-06 03:43:00,6086E-2,5C000490,-0724,1354,6980,023.3,045.2,0.132,768.4,01.15,0.508
2014-03-06 03:44:00,6134E-2,5C000490,-0724,1353,7040,023.3,045.2,0.132,768.4,01.15,0.508
2014-03-06 03:45:00,6174E-2,5C000490,-0724,1353,7093,023.3,045.2,0.132,768.4,01.15,0.508
2014-03-06 03:46:00,6179E-2,5C000490,-0724,1354,7055,023.3,045.1,0.132,768.4,01.15,0.508
2014-03-06 03:47:00,6116E-2,5C000490,-0724,1355,6974,023.3,045.2,0.132,768.5,01.15,0.508
2014-03-06 03:48:00,6120E-2,5C000490,-0724,1356,6986,023.3,045.2,0.132,768.4,01.15,0.508
2014-03-06 03:49:00,6169E-2,5C000490,-0724,1355,7068,023.4,045.2,0.132,768.4,01.15,0.508
2014-03-06 03:50:00,6153E-2,5C000490,-0724,1356,6950,023.4,045.1,0.132,768.4,01.15,0.508
2014-03-06 03:51:00,6127E-2,5C000490,-0724,1357,7002,023.4,045.2,0.132,768.4,01.15,0.508
2014-03-06 03:52:00,6084E-2,5C000490,-0724,1357,6936,023.4,045.2,0.132,768.5,01.15,0.508
2014-03-06 03:53:00,6157E-2,5C000490,-0724,1356,6963,023.4,045.2,0.132,768.4,01.15,0.508
2014-03-06 03:54:00,6169E-2,5C000490,-0724,1357,6976,023.4,045.2,0.132,768.3,01.15,0.508
2014-03-06 03:55:00,6115E-2,5C000490,-0724,1358,7019,023.4,045.1,0.132,768.4,01.15,0.508
2014-03-06 03:56:00,6150E-2,5C000490,-0724,1358,7035,023.4,045.2,0.132,768.4,01.15,0.508
2014-03-06 03:57:00,6154E-2,5C000490,-0724,1359,6960,023.5,045.2,0.132,768.4,01.15,0.508
2014-03-06 03:58:00,6171E-2,5C000490,-0724,1361,6912,023.5,045.2,0.132,768.3,01.15,0.508
2014-03-06 03:59:00,6186E-2,5C000490,-0724,1363,6902,023.5,045.1,0.131,768.3,01.15,0.508
2014-03-06 04:00:00,6133E-2,5C000490,-0724,1363,6976,023.5,045.2,0.132,768.4,01.15,0.508
2014-03-06 04:01:00,6170E-2,5C000490,-0724,1361,6900,023.5,045.1,0.131,768.4,01.15,0.508
2014-03-06 04:02:00,6153E-2,5C000490,-0724,1362,6935,023.5,045.2,0.131,768.4,01.15,0.508
2014-03-06 04:03:00,6145E-2,5C000490,-0724,1361,7020,023.5,045.2,0.131,768.3,01.15,0.508
2014-03-06 04:04:00,6087E-2,5C000490,-0724,1361,6993,023.5,045.1,0.131,768.3,01.15,0.508
2014-03-06 04:05:00,6113E-2,5C000490,-0724,1362,6888,023.5,045.2,0.131,768.4,01.15,0.508
2014-03-06 04:06:00,6082E-2,5C000490,-0724,1360,7045,023.6,045.2,0.131,768.3,01.15,0.508
2014-03-06 04:07:00,5946E-2,5C000490,-0724,1203,9058,023.6,045.1,0.131,768.3,01.15,0.508
2014-03-06 04:08:00,5976E-2,5C000410,-0724,1174,8855,023.6,045.2,0.131,768.3,01.15,0.508
2014-03-06 04:09:00,5893E-2,5C000410,-0724,1175,8733,023.6,045.2,0.131,768.3,01.15,0.508
2014-03-06 04:10:00,6023E-2,5C000410,-0724,1177,8860,023.6,045.2,0.131,768.3,01.15,0.508
2014-03-06 04:11:00,6021E-2,5C000410,-0724,1179,8766,023.7,045.2,0.131,768.3,01.15,0.508
2014-03-06 04:12:00,5977E-2,5C000410,-0724,1183,8731,023.6,045.2,0.131,768.3,01.15,0.508
2014-03-06 04:13:00,5989E-2,5C000410,-0724,1185,8653,023.6,045.1,0.131,768.3,01.15,0.508
2014-03-06 04:14:00,5973E-2,5C000410,-0724,1188,8729,023.7,045.2,0.131,768.3,01.15,0.508
2014-03-06 04:15:00,5977E-2,5C000410,-0724,1191,8555,023.7,045.2,0.131,768.3,01.15,0.508
2014-03-06 04:16:00,5981E-2,5C000410,-0724,1195,8547,023.7,045.2,0.131,768.3,01.15,0.508
2014-03-06 04:17:00,5982E-2,5C000410,-0724,1198,8614,023.7,045.2,0.131,768.2,01.15,0.508
2014-03-06 04:18:00,6040E-2,5C000410,-0724,1200,8546,023.7,045.2,0.131,768.3,01.15,0.508
2014-03-06 04:19:00,5986E-2,5C000490,-0724,1201,8504,023.7,045.2,0.130,768.2,01.15,0.508
2014-03-06 04:20:00,6003E-2,5C000490,-0724,1202,8492,023.8,045.2,0.130,768.3,01.15,0.508
2014-03-06 04:21:00,6005E-2,5C000490,-0724,1207,8458,023.8,045.2,0.130,768.3,01.15,0.508
2014-03-06 04:22:00,5995E-2,5C000490,-0724,1209,8527,023.8,045.2,0.130,768.3,01.15,0.508
2014-03-06 04:23:00,6105E-2,5C000490,-0724,1211,8415,023.8,045.2,0.130,768.2,01.15,0.508